OPS 1292

operational
NORAD ID: 11852 Int'l Des: 1980-052 Owner: NRO/SAFSP Country: US
LEOCIRCULARRETROGRADE

关于 OPS 1292

正在加载描述...

实时位置

正在加载3D地球...

即将过境

高度历史

Altitude vs Time

uPlot chart will show altitude changes over time

两行轨道根数

1 11852U 80052C 26072.35625383 .00000006 00000-0 10244-3 0 9994
2 11852 96.6164 39.0758 0003638 106.3338 253.8167 12.83714103 85686
Epoch: Mar 13, 2026 • Age: 36 hours

当前状态

高度 1339.4 km
速度 7.19 km/s
星下点 -29.46°S, 44.54°E
发射日期 Jun 18, 1980
运行时间 45.7 years
类型 other

技术详情

分类 Payload
质量 120.00 kg
干质量 100.00 kg
总质量 120.00 kg
长度 1.50 m
直径 0.40 m
跨度 1.50 m
形状 Box + Ant
制造商 LMSC
平台类型 SSU C
阶段状态 In Orbit
所有者/国家 NRO/SAFSP/US

大型星座

Loading constellations...